This demonstration page uses our WeatherBlox Daily Observations layout. Learn more.

Left ArrowRight Arrow

41.55636, -103.73856

Hourly Observations for February 28, 2020

Temp ( °F °C ) Dew Point ( °F °C ) Humidity (%) Winds ( mph kmh ) Pressure ( in mb ) Visibility ( mi km ) Precip ( " mm )
12:58 am 00:58 Clear 34 0.9 20 -6.4 59 59 W 5 7 30.29 1026 10 16 N/A
1:58 am 01:58 Clear 30 -1.2 21 -6.3 69 69 SSW 6 9 30.30 1026 10 16 N/A
2:58 am 02:58 Clear 28 -2 20 -6.7 71 71 W 8 13 30.31 1026 10 16 N/A
3:58 am 03:58 Clear 27 -2.6 19 -7 72 72 WNW 5 7 30.41 1030 10 16 N/A
4:58 am 04:58 Clear 28 -2 19 -7.1 68 68 WNW 7 11 30.41 1030 10 16 N/A
5:58 am 05:58 Clear 26 -3.5 20 -6.7 79 79 WSW 8 13 30.43 1031 10 16 N/A
6:58 am 06:58 Clear 25 -3.8 20 -6.7 81 81 WSW 8 13 30.43 1030 10 16 N/A
7:58 am 07:58 Clear 24 -4.2 19 -7 81 81 W 7 11 30.44 1031 10 16 N/A
8:58 am 08:58 Clear 24 -4.5 19 -7.4 80 80 W 10 17 30.30 1026 10 16 N/A
9:58 am 09:58 Clear 23 -4.9 18 -7.7 81 81 W 12 19 30.29 1026 10 16 N/A
10:58 am 10:58 Clear 28 -2.5 19 -7.5 69 69 WNW 13 20 30.28 1025 10 16 N/A
11:58 am 11:58 Clear 27 -3 18 -7.7 70 70 WNW 13 20 30.31 1026 10 16 N/A
12:58 pm 12:58 Clear 24 -4.4 17 -8.4 74 74 W 6 9 30.35 1028 10 16 N/A
1:58 pm 13:58 Sunny 28 -2 17 -8.1 63 63 WNW 12 19 30.37 1028 10 16 N/A
2:58 pm 14:58 Sunny 32 -0.2 21 -6.3 64 64 WNW 8 13 30.36 1028 10 16 N/A
3:58 pm 15:58 Sunny 39 3.7 22 -5.8 50 50 WNW 5 7 30.35 1028 10 16 N/A
4:58 pm 16:58 Sunny 43 6.3 16 -8.8 33 33 NW 16 26 30.33 1027 10 16 N/A
5:58 pm 17:58 Sunny 46 7.8 15 -9.5 28 28 NW 17 28 30.33 1027 10 16 N/A
6:58 pm 18:58 Sunny 48 8.9 15 -9.7 26 26 NW 15 24 30.29 1026 10 16 N/A
7:58 pm 19:58 Sunny 51 10.4 16 -9.1 25 25 NW 13 20 30.26 1025 10 16 N/A
8:58 pm 20:58 Sunny 51 10.8 15 -9.4 23 23 NW 12 19 30.24 1024 10 16 N/A
9:58 pm 21:58 Sunny 53 11.5 15 -9.4 22 22 WNW 17 28 30.22 1023 10 16 N/A
10:58 pm 22:58 Sunny 52 11.3 16 -8.7 24 24 WNW 18 30 30.22 1023 10 16 N/A
11:58 pm 23:58 Sunny 50 9.9 19 -7.2 30 30 W 9 15 30.21 1023 10 16 N/A

Powered by AerisWeather